Weather in Kalo Chorio

Greece     35°06′56″N   25°43′25″E
temp.,
°C
wind,
m/s
gust,
m/s
humid.,
%
clouds,
%
prec.,
mm/h
press.,
hPa
HPBL,
m
16 june, wed
wed1600:00+18n337435 0.8 1014168
03:00+18nnw33670 1.0 1013254
06:00+18nw22680 0.0 1013237
09:00+20nnw11563 0.0 1014491
12:00+21ssw43540 0.0 1015885
15:00+22sw655412 0.0 1015786
18:00+22sw55560 0.0 1016635
21:00+21sw22670 0.0 1016190
17 june, thu
thu1700:00+21ne11640 0.0 1017143
03:00+21n22570 0.0 101661
06:00+21nnw22530 0.0 101656
09:00+23e11490 0.0 1017200
12:00+23sw32550 0.0 1018549
15:00+23sw54591 0.0 1018612
18:00+24sw45580 0.0 1017413
21:00+23wnw12650 0.0 101742
18 june, fri
fri1800:00+22n22680 0.0 101737
03:00+21nne33700 0.0 101674
06:00+21n22690 0.0 101564
09:00+23nne01610 0.0 1016196
12:00+24sw43605 0.0 1016563
15:00+24sw54584 0.0 1015618
18:00+23sw23583 0.0 1014450
21:00+22nnw01670 0.0 101463
19 june, sat
sat1900:00+22nne33580 0.0 101342
03:00+22n22580 0.0 101236
06:00+22nnw22560 0.0 101223
09:00+24s12500 0.0 1013246
12:00+24ssw23540 0.0 1013537
15:00+25wsw34560 0.0 1012530
18:00+24nw02592 0.0 1012371
21:00+23nne22660 0.0 101257
20 june, sun
sun2000:00+23n33650 0.0 101250
03:00+23nnw22640 0.0 101128
06:00+22n11673 0.0 101118
09:00+24n02590 0.0 1012319
12:00+25ssw23581 0.0 1012535
15:00+25sw226011 0.0 1012513
18:00+24wsw126219 0.0 1012355
21:00+23nne226853 0.0 101264